Location: Saint-Morand
(47.8012°N, 1.2794°W)
Time: 10:59:03
(UTC+00:00)

Cosmos 2278 Rocket - Pass Details

Date: 03 March 2021
Orbit: 842 x 845 km, 71.0° (Epoch: 22 April)

Event Time Altitude Azimuth Distance (km) Brightness Sun altitude
Rises 18:38:10 0° 338° (NNW) 3,416 5.7 -8.4°
Reaches altitude 10° 18:41:45 10° 0° (N) 2,477 4.7 -9.0°
Maximum altitude 18:45:03 15° 36° (NE) 2,108 4.0 -9.5°
Enters shadow 18:48:08 11° 70° (ENE) 2,428 4.0 -10.1°
